Regional Weather Roundup
Issued by NWS State College, PA

Home | Current Version | Previous Version | Graphics & Text | Print | Product List | Glossary Off
Versions: 1 2 3 4 5 6 7 8 9 10 11 12 13 14 15 16 17 18 19 20 21 22 23 24 25 26 27 28 29 30 31 32 33 34 35 36 37 38 39 40 41 42 43 44 45 46 47 48 49 50

000
ASUS41 KCTP 240103
RWRCTP

REGIONAL WEATHER ROUNDUP
NATIONAL WEATHER SERVICE STATE COLLEGE PA
900 PM EDT TUE AUG 23 2016

Note: "fair" indicates few or no clouds below 12,000 feet with no
significant weather and/or obstructions to visibility.

* = STATION THAT DOES NOT REPORT PRECIPITATION /E.G. RAIN...SNOW...ETC/
    THUNDER OR FOG.

PAZ002>004-007>009-013>016-020>023-029>032-240200-
WESTERN PENNSYLVANIA

CITY           SKY/WX    TMP DP  RH WIND       PRES   REMARKS
ERIE           CLEAR     70  60  70 CALM      30.25S
MEADVILLE      CLEAR     69  56  62 CALM      30.27S
FRANKLIN*      CLEAR     66  55  68 CALM      30.29R
NEW CASTLE     FAIR      67  60  78 CALM      30.27R
BEAVER COUNTY  CLEAR     72  57  60 CALM      30.27S
BUTLER*        NOT AVBL
PITTSBURGH INT PTCLDY    73  59  61 CALM      30.26S
PITTSBURGH     CLEAR     77  55  46 CALM      30.26R
INDIANA*       PTCLDY    68  63  83 CALM      30.31R
LATROBE        CLEAR     70  64  83 CALM      30.27S
WASHINGTON CO* CLEAR     63  59  88 CALM      30.27S
$$

PAZ004>006-010>012-017>019-024>028-033>037-041-042-045-046-049>053-240200-
CENTRAL PENNSYLVANIA

CITY           SKY/WX    TMP DP  RH WIND       PRES   REMARKS
BRADFORD       CLEAR     62  60  93 CALM      30.31R
DUBOIS         CLOUDY    68  56  65 CALM      30.29R
CLEARFIELD     CLOUDY    66  61  84 N6        30.29R
JOHNSTOWN      CLEAR     69  57  65 CALM      30.32R
ALTOONA        CLEAR     67  60  78 S6        30.30R
STATE COLLEGE  PTCLDY    72  59  64 CALM      30.28R
WILLIAMSPORT   CLEAR     68  61  78 CALM      30.24R
SELINSGROVE    CLEAR     64  64 100 CALM      30.26R
FT INDIANTOWN  CLEAR     67  58  73 N2        30.26R
CAPITAL CITY   CLEAR     73  60  63 CALM      30.26R
HARRISBURG     PTCLDY    72  65  78 E7        30.25R
YORK           CLEAR     67  60  78 CALM      30.27R
$$

PAZ038>040-043-044-047-048-054-055-060>062-067>071-240200-
EASTERN PENNSYLVANIA

CITY           SKY/WX    TMP DP  RH WIND       PRES   REMARKS
SCRANTON       CLEAR     67  58  72 SE3       30.28R
MOUNT POCONO   CLEAR     58  54  86 NW5       30.32R
ALLENTOWN      NOT AVBL
QUAKERTOWN*    CLEAR     66  57  72 CALM      30.28R
READING        CLEAR     69  60  73 CALM      30.25R
LANCASTER      CLEAR     70  63  78 CALM      30.26S
COATESVILLE    CLEAR     70  59  68 CALM      30.30R
POTTSTOWN      CLEAR     67  58  72 CALM      30.28R
BLUE BELL      CLEAR     63  59  88 CALM      30.26R
DOYLESTOWN     CLEAR     68  58  70 CALM      30.26S
WILLOW GROVE   NOT AVBL
NORTH PHILA    CLEAR     74  54  49 W3        30.27R
PHILADELPHIA   PTCLDY    76  58  53 S8        30.27R
$$




USA.gov is the U.S. government's official web portal to all federal, state and local government web resources and services.